TimeEDT,TemperatureF,Dew PointF,Humidity,Sea Level PressureIn,VisibilityMPH,Wind Direction,Wind SpeedMPH,Gust SpeedMPH,PrecipitationIn,Events,Conditions,WindDirDegrees,DateUTC
12:54 AM,59.0,54.0,83,29.96,-9999.0,SSW,23.0,32.2,N/A,,Unknown,200,2012-10-15 04:54:00
1:54 AM,59.0,55.0,87,29.93,-9999.0,South,19.6,31.1,N/A,,Unknown,190,2012-10-15 05:54:00
2:54 AM,59.0,55.0,87,29.91,-9999.0,SSW,20.7,31.1,N/A,,Unknown,210,2012-10-15 06:54:00
3:54 AM,60.1,55.0,83,29.89,-9999.0,SSW,19.6,27.6,N/A,,Unknown,200,2012-10-15 07:54:00
4:54 AM,60.1,55.9,86,29.88,-9999.0,South,17.3,26.5,N/A,,Unknown,190,2012-10-15 08:54:00
5:54 AM,61.0,57.0,87,29.86,-9999.0,South,24.2,31.1,N/A,,Unknown,190,2012-10-15 09:54:00
6:54 AM,61.0,57.9,90,29.84,-9999.0,South,20.7,28.8,N/A,,Unknown,190,2012-10-15 10:54:00
7:54 AM,63.0,59.0,87,29.83,-9999.0,South,25.3,34.5,N/A,,Unknown,190,2012-10-15 11:54:00
8:54 AM,64.9,59.0,81,29.83,-9999.0,South,24.2,34.5,N/A,,Unknown,190,2012-10-15 12:54:00
9:54 AM,66.9,59.0,76,29.82,-9999.0,South,18.4,34.5,N/A,,Unknown,190,2012-10-15 13:54:00
10:54 AM,70.0,59.0,68,29.80,-9999.0,SSW,19.6,38.0,N/A,,Unknown,200,2012-10-15 14:54:00
11:54 AM,71.1,57.9,63,29.78,-9999.0,South,24.2,32.2,N/A,,Unknown,190,2012-10-15 15:54:00
12:54 PM,73.0,59.0,61,29.76,-9999.0,SSW,21.9,31.1,N/A,,Unknown,200,2012-10-15 16:54:00
1:54 PM,71.1,57.9,63,29.73,-9999.0,South,19.6,29.9,N/A,,Unknown,190,2012-10-15 17:54:00
2:54 PM,71.1,59.0,66,29.71,-9999.0,South,17.3,29.9,N/A,,Unknown,190,2012-10-15 18:54:00
3:54 PM,71.1,57.9,63,29.70,-9999.0,SSW,21.9,29.9,N/A,,Unknown,200,2012-10-15 19:54:00
4:54 PM,68.0,59.0,73,29.69,-9999.0,South,15.0,24.2,N/A,,Unknown,190,2012-10-15 20:54:00
5:54 PM,64.9,57.9,78,29.69,-9999.0,South,15.0,27.6,N/A,,Unknown,190,2012-10-15 21:54:00
6:54 PM,64.0,57.9,80,29.68,-9999.0,South,18.4,27.6,N/A,,Unknown,190,2012-10-15 22:54:00
7:54 PM,63.0,60.1,90,29.68,-9999.0,South,20.7,28.8,N/A,,Unknown,190,2012-10-15 23:54:00
8:54 PM,63.0,60.1,90,29.67,-9999.0,SSW,17.3,25.3,N/A,,Unknown,200,2012-10-16 00:54:00
9:54 PM,63.0,60.1,90,29.67,-9999.0,SSW,13.8,21.9,N/A,,Unknown,200,2012-10-16 01:54:00
10:54 PM,63.0,61.0,93,29.65,-9999.0,South,9.2,-,N/A,,Unknown,190,2012-10-16 02:54:00
11:54 PM,63.0,61.0,93,29.63,-9999.0,South,9.2,-,N/A,,Unknown,180,2012-10-16 03:54:00